Alex Barbosa

Olheiro - Santos
14 Out 2027
Quinta-feira
Processo

Personalidade

Adaptabilidade (8) Ambição (9) Controvérsia (17) Lealdade (19) Pressão (13) Profissionalismo (10) Espírito Esportivo (1) Temperamento (20)

Perfil

Estilo de Treinamento Democrático
Licença Continental A
Determinação 12
Gestão de Pessoas 7
Motivação 6
Disciplina 10
Satisfação no Trabalho
70%
Fadiga
0%
Função Olheiro
Salário 29.4K p/s
Contrato 14.03.2029

Desempenho

Comportamento Bom
Eficácia do Treinamento
38%
Desenvolvimento do Jogador
40%
Prevenção de Lesões
25%
Implementação Tática
35%

Eventos Recentes

Participou de uma reunião de recrutamento agora
Recomendou um alvo de transferência agora
Participou de uma reunião de recrutamento agora
Participou de uma reunião de recrutamento 7d atrás
Recomendou um alvo de transferência 7d atrás
Participou de uma reunião de recrutamento 7d atrás
Participou de uma reunião de recrutamento 7d atrás
Participou de uma reunião de recrutamento 7d atrás

Monitorando agora

134
Jogador Clube Status Habilidade Confiança Observado Última observação Último voto
Ferreirinha Sport Recife Ativo 130 / 124 65% 1 05.07.2027 Aprovar
Callum Brittain Middlesbrough Ativo 137 / 143 40% 1 31.05.2027 -
Sorba Thomas Stoke City Ativo 130 / 143 40% 3 29.05.2027 -
Jacob Ramsey Newcastle United Ativo 153 / 165 40% 1 29.05.2027 -
Amine Adli Bournemouth Ativo 150 / 129 40% 1 28.05.2027 -
Kiernan Dewsbury-Hall Everton Ativo 164 / 160 40% 2 27.05.2027 -
James Maddison Tottenham Ativo 172 / 166 40% 1 27.05.2027 -
Nordi Mukiele Sunderland Ativo 156 / 130 40% 1 27.05.2027 -
Jacques Ekomié Wrexham Ativo 136 / 132 40% 1 27.05.2027 -
Kevin Fulham Ativo 149 / 158 40% 3 25.05.2027 -
Will Lankshear Middlesbrough Ativo 117 / 125 40% 1 25.05.2027 -
Bojan Radulović Huddersfield Town Ativo 115 / 121 40% 1 25.05.2027 -
Curtis Jones Inter Ativo 157 / 166 40% 3 23.05.2027 -
Francisco Conceição Juventus Ativo 162 / 155 40% 1 23.05.2027 Mais informações
Anton Stach Leeds United Ativo 151 / 159 40% 3 22.05.2027 -
Nico González Newcastle United Ativo 155 / 176 40% 2 22.05.2027 -
Amadou Onana Aston Villa Ativo 165 / 172 40% 2 21.05.2027 -
Quinten Timber Crystal Palace Ativo 149 / 158 40% 1 21.05.2027 -
Benjamin White Arsenal Ativo 148 / 149 40% 2 20.05.2027 -
Igor Burnley Ativo 155 / 133 40% 1 20.05.2027 -
Kenan Yıldız Juventus Ativo 164 / 154 40% 1 19.05.2027 Mais informações
Finn Azaz Southampton Ativo 118 / 138 40% 4 18.05.2027 -
Dango Ouattara Brentford Ativo 146 / 148 40% 4 18.05.2027 -
Morgan Whittaker Middlesbrough Ativo 145 / 142 40% 3 17.05.2027 -
Dávid Strelec Middlesbrough Ativo 130 / 151 40% 1 17.05.2027 -
Tom Cannon Sheffield United Ativo 143 / 121 40% 1 17.05.2027 -
Óscar Mingueza Crystal Palace Ativo 150 / 158 40% 1 15.05.2027 -
Toby Collyer West Bromwich Albion Ativo 145 / 119 40% 2 14.05.2027 -
Jan Paul van Hecke Tottenham Ativo 155 / 141 40% 2 14.05.2027 -
Léo Scienza Southampton Ativo 140 / 139 40% 1 14.05.2027 -
Callum Doyle Wrexham Ativo 118 / 149 40% 1 12.05.2027 -
Georginio Rutter Brighton Ativo 157 / 164 40% 2 10.05.2027 -
Kerem Aktürkoğlu Fenerbahce Ativo 152 / 155 40% 1 09.05.2027 -
Aune Heggebø West Bromwich Albion Ativo 120 / 129 40% 6 05.05.2027 -
Luis Vázquez Birmingham Ativo 128 / 135 40% 2 05.05.2027 -
Japhet Tanganga Sheffield United Ativo 131 / 128 40% 2 01.05.2027 -
Ryan Sessegnon Fulham Ativo 153 / 148 40% 1 29.04.2027 -
Borja Sainz Fiorentina Ativo 150 / 127 40% 4 26.04.2027 -
Ilyas Ansah Hull City Ativo 129 / 117 40% 1 26.04.2027 -
Víctor Dávila Club America Ativo 128 / 147 40% 1 23.04.2027 -
Sergi Altimira Sporting CP Ativo 127 / 131 40% 2 22.04.2027 -
Rodrigo Zalazar Sporting CP Ativo 144 / 142 40% 3 21.04.2027 -
Xavi Simons Tottenham Ativo 150 / 140 40% 1 21.04.2027 -
Pau Víctor AVS Ativo 133 / 137 40% 5 19.04.2027 -
Hwang In-Beom Porto Ativo 150 / 137 40% 2 19.04.2027 -
Thiago Brentford Ativo 156 / 150 40% 1 19.04.2027 -
Iván Fresneda Sporting CP Ativo 131 / 140 40% 7 18.04.2027 -
Jake O'Brien Everton Ativo 141 / 154 40% 1 15.04.2027 -
Kyle Walker-Peters West Ham United Ativo 146 / 142 40% 6 13.04.2027 -
Jesús Angulo Tigres Ativo 133 / 119 40% 4 13.04.2027 -
Sikou Niakaté Braga Ativo 143 / 132 40% 3 10.04.2027 -
Luke McNally Bristol City Ativo 120 / 136 40% 1 10.04.2027 -
Ethan Galbraith Swansea City Ativo 147 / 120 40% 1 08.04.2027 -
Víctor Gómez Braga Ativo 132 / 155 40% 1 08.04.2027 -
Ozziel Herrera Tigres Ativo 143 / 134 40% 2 07.04.2027 -
Brian Rodríguez Club America Ativo 117 / 113 40% 1 07.04.2027 -
Riley McGree Middlesbrough Ativo 122 / 125 40% 1 06.04.2027 -
Agustín Palavecino Cruz Azul Ativo 134 / 135 40% 3 04.04.2027 -
João Simões Sporting CP Ativo 142 / 138 40% 2 03.04.2027 -
Jesús Ricardo Angulo Toluca Ativo 146 / 123 40% 1 03.04.2027 -
Roberto Fernández Braga Ativo 140 / 128 40% 5 02.04.2027 -
Pepê Porto Ativo 154 / 147 40% 2 02.04.2027 -
Figueiredo Alverca Ativo 128 / 113 40% 3 30.03.2027 -
Tomás Araújo Benfica Ativo 145 / 151 40% 2 30.03.2027 -
Jhon Arias Palmeiras Ativo 139 / 140 40% 1 28.03.2027 -
Rafik Guitane Estoril Praia Ativo 120 / 137 40% 1 27.03.2027 -
Andrea Pinamonti Lazio Ativo 137 / 140 40% 1 27.03.2027 -
Richard Koné Queens Park Rangers Ativo 127 / 126 40% 1 27.03.2027 -
Gonçalo Inácio Sporting CP Ativo 144 / 138 40% 4 25.03.2027 -
Max Bird Birmingham Ativo 118 / 145 40% 1 25.03.2027 -
Nicolás Fernández Mercau Shakhtar Ativo 146 / 147 40% 1 25.03.2027 -
Razvan Balasa Crvena Zvezda Ativo 149 / 164 40% 2 23.03.2027 -
Joaquín Panichelli Le Havre AC Ativo 149 / 156 40% 1 23.03.2027 -
Gianluca Prestianni Benfica Ativo 149 / 154 40% 2 19.03.2027 -
Javi Sánchez Arouca Ativo 135 / 132 40% 2 18.03.2027 -
Welington Southampton Ativo 146 / 144 40% 1 18.03.2027 -
Milan van Ewijk Mansfield Town Ativo 133 / 123 40% 1 16.03.2027 -
Bright Arrey-Mbi Braga Ativo 148 / 123 40% 1 14.03.2027 -
Jalen Blesa Rio Ave Ativo 127 / 131 40% 2 10.03.2027 -
Duk Atlas Ativo 130 / 107 40% 1 10.03.2027 -
Dawda Camara Alverca Ativo 115 / 118 40% 1 07.03.2027 -
Evidence Makgopa Orlando Pirates Ativo 100 / 128 40% 1 06.03.2027 -
Robert Mizo Ashanti Gold Ativo 101 / 111 40% 1 06.03.2027 -
Zeno Debast Sporting CP Ativo 147 / 159 40% 2 04.03.2027 -
Dylan Nandín Arouca Ativo 118 / 105 40% 1 04.03.2027 -
Alberto Costa Porto Ativo 147 / 145 40% 1 04.03.2027 -
Luís Esteves Atlas Ativo 120 / 118 40% 1 28.02.2027 -
Lucas Duarte Felgueiras Ativo 106 / 120 40% 1 24.02.2027 -
Martín Tejón Maritimo Ativo 108 / 135 40% 2 23.02.2027 -
Henrique Araújo Casa Pia Ativo 112 / 109 40% 2 23.02.2027 -
Gabriel Veron Porto Ativo 130 / 133 40% 3 20.02.2027 -
Gerardo Arteaga Monterrey Ativo 147 / 127 40% 1 12.02.2027 -
Aidan Morris Middlesbrough Ativo 143 / 142 40% 1 10.02.2027 -
Jan Bednarek Porto Ativo 134 / 146 40% 1 09.02.2027 -
José Hurtado Bragantino Ativo 121 / 129 40% 1 03.02.2027 -
Ianis Stoica Estrela da Amadora Ativo 127 / 103 40% 1 02.02.2027 -
Lucas Ramon Sport Recife Ativo 113 / 136 55% 1 28.12.2026 -
Toni Tamarit Alverca Ativo 99 / 106 40% 1 25.11.2026 -
Ainsley Maitland-Niles Everton Ativo 135 / 143 40% 1 25.11.2026 -
Themba Ngcobo SuperSport United Ativo 133 / 99 40% 1 25.11.2026 -
Alfonso Trezza Arouca Ativo 118 / 121 40% 4 23.11.2026 -
Wilson Isidor Sunderland Ativo 121 / 136 40% 1 19.11.2026 -
Christian Krasnodar Ativo 132 / 124 40% 1 15.11.2026 -
Renan Lodi Atlético Mineiro Ativo 147 / 135 40% 1 14.11.2026 -
Adam Wharton Crystal Palace Ativo 165 / 163 40% 1 12.11.2026 -
Gonzalo Fulham Ativo 140 / 152 40% 1 11.11.2026 -
Thorgan Witsel KV Oostende Ativo 132 / 139 40% 1 02.11.2026 -
Jean Lucas Bahia Ativo 125 / 121 40% 1 29.10.2026 -
Gustaf Lagerbielke Braga Ativo 123 / 121 40% 1 27.10.2026 -
Lorent Tolaj Plymouth Argyle Ativo 122 / 99 40% 1 24.10.2026 -
Manuel Ospina Cortulua Ativo 130 / 114 40% 2 23.10.2026 -
Zé Leite Leixões Ativo 122 / 117 40% 2 22.10.2026 -
Nicolò Tresoldi Club Brugge Ativo 141 / 131 40% 1 15.10.2026 -
Jacob Greaves Ipswich Town Ativo 138 / 126 40% 1 14.10.2026 -
Wessam Abou Ali Columbus Crew Ativo 121 / 132 40% 1 11.10.2026 -
Adnan Courtois KV Oostende Ativo 117 / 132 40% 1 08.10.2026 -
Bénie Traoré New York City Ativo 119 / 141 40% 1 28.09.2026 -
Guilherme Neiva AVS Ativo 117 / 115 40% 1 28.09.2026 -
Guilherme Arana Fluminense Ativo 126 / 143 40% 1 19.09.2026 -
Fally Mayulu Arouca Ativo 116 / 96 40% 1 10.09.2026 -
Vitinho Internacional Ativo 131 / 116 40% 1 10.09.2026 -
Victor Froholdt Porto Ativo 146 / 176 40% 2 08.09.2026 -
Ibrahim Sangaré Nottingham Forest Ativo 144 / 145 40% 1 08.09.2026 -
Heorhii Sudakov Benfica Ativo 134 / 133 40% 1 06.09.2026 -
Mathías Villasanti Grêmio Ativo 124 / 129 40% 1 05.09.2026 -
Alex Scott Bournemouth Ativo 145 / 152 40% 1 03.09.2026 -
Rémi Lemoine Chamois Niortais Ativo 170 / 142 40% 1 26.08.2026 Mais informações
Allan Saint-Maximin Charlotte Football Club Ativo 136 / 145 40% 1 26.08.2026 -
Luís Guilherme Sporting CP Ativo 110 / 149 40% 1 19.08.2026 -
Leandro Barreiro Benfica Ativo 151 / 138 40% 1 10.08.2026 -
Geny Sporting CP Ativo 139 / 126 40% 1 10.08.2026 -
Yoane Wissa Newcastle United Ativo 142 / 144 40% 1 06.08.2026 -
Vitor Carvalho Braga Ativo 136 / 128 40% 1 03.08.2026 -
Pablo Rosario Porto Ativo 139 / 117 40% 1 01.08.2026 -